Regional Weather Roundup
Issued by NWS

Home | Current Version | Previous Version | Text Only | Print | Product List | Glossary On
Versions: 1 2 3 4 5 6 7 8 9 10 11 12 13 14 15 16 17 18 19 20 21 22 23 24 25 26 27 28 29 30 31 32 33 34 35 36 37 38 39 40 41 42 43 44 45 46 47 48 49 50
000
ASUS43 KOAX 241102
RWRNE

WEATHER ROUNDUP FOR NEBRASKA
NATIONAL WEATHER SERVICE OMAHA NE
600 AM CDT THU JUL 24 2014

NOTES: SATELLITE DATA IS BEING USED TO AUGMENT CLOUD COVER ABOVE
       12000 FEET.
       "FAIR" INDICATES FEW OR NO CLOUDS BELOW 12,000 FEET WITH NO
       SIGNIFICANT WEATHER AND/OR OBSTRUCTIONS TO VISIBILITY.

  * THESE STATIONS DO NOT REPORT WEATHER SUCH AS RAIN...SNOW OR FOG.

NEZ001>004-019>022-054>056-241200-
NEBRASKA PANHANDLE

CITY           SKY/WX    TMP DP  RH WIND       PRES   REMARKS
SCOTTSBLUFF    PTCLDY    67  64  90 E9        30.02S
ALLIANCE       PTCLDY    64  63  96 SE12      30.03F
CHADRON        MOCLDY    72  64  76 S21G30    29.93F
KIMBALL        PTCLDY    63  61  93 S3        30.10S
SIDNEY         CLEAR     69  64  84 S14       30.08F
$$

NEZ057>060-069>072-079>082-241200-
SOUTHWEST NEBRASKA

CITY           SKY/WX    TMP DP  RH WIND       PRES   REMARKS
NORTH PLATTE   CLEAR     67  60  78 SE10      30.05F
IMPERIAL       CLEAR     65  62  90 E9        30.06F
LEXINGTON      CLEAR     63  60  90 SE6       30.09F
MCCOOK         CLEAR     64  61  90 E7        30.08F
OGALLALA       CLEAR     64  61  90 S10G16    30.05S
$$

NEZ005>010-023>029-035>040-094-241200-
NORTH CENTRAL NEBRASKA

CITY           SKY/WX    TMP DP  RH WIND       PRES   REMARKS
VALENTINE      CLEAR     64  60  87 SE9       30.02F
AINSWORTH      CLEAR     64  58  80 SE14      30.05F
BROKEN BOW     CLEAR     65  60  84 S12       30.08F
O`NEILL        PTCLDY    65  58  79 SE8       30.09S
ORD            CLEAR     64  59  83 SE7       30.08F
THEDFORD       CLEAR     67  60  78 S10       30.05F
$$

NEZ041-046>049-061>064-073>077-083>087-241200-
SOUTH CENTRAL NEBRASKA

CITY           SKY/WX    TMP DP  RH WIND       PRES   REMARKS
GRAND ISLAND   CLEAR     65  60  84 S8        30.11S
AURORA         CLEAR     63  61  94 SE3       30.11F
HASTINGS       CLEAR     66  59  78 S10       30.11S
HEBRON         CLEAR     61  58  90 CALM      30.12S
HOLDREGE       CLEAR     64  61  88 SE10      30.10F
KEARNEY *      CLEAR     63  61  94 S9        30.11S
YORK           CLEAR     64  63  94 SE7       30.12F
$$

NEZ011>018-030>034-042>045-241200-
NORTHEAST NEBRASKA

CITY           SKY/WX    TMP DP  RH WIND       PRES   REMARKS
NORFOLK        MOCLDY    64  60  87 SE9       30.10F
ALBION         CLEAR     60  57  92 CALM      30.11S
BLAIR          CLEAR     63  57  80 CALM      30.13S
COLUMBUS *     PTCLDY    64  57  77 SE8       30.11F
FREMONT        CLEAR     67  60  80 SE5       30.14R
TEKAMAH        CLEAR     60  57  89 S3        30.13S
WAYNE          CLEAR     64  61  89 SE8       30.12F
$$

NEZ050>053-065>068-078-088>093-241200-
SOUTHEAST NEBRASKA

CITY           SKY/WX    TMP DP  RH WIND       PRES   REMARKS
LINCOLN        CLEAR     68  59  73 SE6       30.13S
OMAHA EPPLEY   PTCLDY    66  58  75 SE7       30.14R
BEATRICE       CLEAR     64  61  90 SE3       30.13R
FALLS CITY     CLEAR     64  60  87 SE3       30.13R
NEBRASKA CITY  CLEAR     64  60  85 SE6       30.14S
PLATTSMOUTH    CLEAR     65  59  82 SE5       30.14S
$$

NEZ044-045-051>053-067-241200-
OMAHA AREA

CITY           SKY/WX    TMP DP  RH WIND       PRES   REMARKS
OMAHA EPPLEY   PTCLDY    66  58  75 SE7       30.14R
BLAIR          CLEAR     63  57  80 CALM      30.13S
FREMONT        CLEAR     67  60  80 SE5       30.14R
MILLARD        CLEAR     66  61  83 CALM      30.13S
OFFUTT AFB     CLEAR     64  62  92 CALM      30.13S
PLATTSMOUTH    CLEAR     65  59  82 SE5       30.14S
WAHOO          FAIR      62  59  88 SE3       30.13S
$$



USA.gov is the U.S. government's official web portal to all federal, state and local government web resources and services.